[[{"header":{"parameterUnit":"m.s-1","parameterCategory":1,"la1":30.2991,"la2":30.254,"lo1":-89.0895,"lo2":-89.0444,"dy":0.0017,"dx":0.0017,"nx":28,"ny":28,"refTime":"2025-09-08T21:00:00:Z","depth":0,"parameterNumber":2,"parameterNumberName":"U-component_of_WINDS"},"data":[0,0,0,0,0,0,0,0,0,0,0,0,0,0,0,0,0,0,0,0,0,0,0,0,0,0,0,0,0,0,0,0,0,0,0,0,0,0,0,0,0,0,0,0,0,0,0,0,0,0,0,0,0,0,0,0,0,0,-3.8913,-3.8912,0,-3.8825,-3.8824,-3.8823,-3.8644,-3.864,-3.8637,-3.8633,-3.8549,-3.855,-3.8551,0,0,0,0,0,0,0,0,0,0,0,0,0,-3.8931,-3.8931,-3.8913,-3.8912,-3.8911,-3.8826,-3.8824,-3.8823,-3.8645,-3.864,-3.8636,-3.8632,-3.8549,-3.855,-3.8551,0,0,0,0,0,0,0,0,0,0,0,0,0,-3.8891,-3.8931,-3.8913,-3.8811,-3.8801,-3.8826,-3.8824,-3.8823,-3.8645,-3.864,-3.8635,-3.863,-3.8548,-3.855,-3.8551,-3.867,0,0,-3.8556,-3.8557,0,0,0,0,0,0,0,0,-3.8894,-3.8891,-3.8827,-3.8818,-3.8807,-3.874,-3.8799,-3.8772,-3.8647,-3.8705,-3.8633,-3.8627,-3.8617,-3.8613,-3.8608,-3.8666,-3.8662,-3.8557,-3.8558,-3.8558,-3.8559,0,0,0,0,0,0,0,-3.8897,-3.8894,-3.8878,-3.8827,-3.8814,-3.8772,-3.876,-3.8793,-3.8693,-3.8699,-3.8686,-3.8678,-3.8611,-3.8607,-3.8605,-3.8661,-3.8557,-3.8558,-3.8559,-3.856,-3.881,-3.8815,0,0,0,0,0,0,-3.8914,-3.8897,-3.8881,-3.8876,-3.8838,-3.8776,-3.8763,-3.8767,-3.8692,-3.8675,-3.8683,-3.867,-3.8607,-3.8603,-3.8601,-3.8733,-3.8558,-3.856,-3.8561,-3.8804,-3.8811,-3.8817,0,0,0,0,0,0,-3.8915,-3.8914,-3.8885,-3.8883,-3.8876,-3.8781,-3.8787,-3.8768,-3.8764,-3.8679,-3.866,-3.8697,-3.8603,-3.8599,-3.8653,-3.8728,-3.8561,-3.8562,-3.8798,-3.8807,-3.8814,-3.9,0,0,0,0,0,0,-3.8916,-3.8915,-3.8958,-3.8885,-3.8877,-3.8937,-3.8792,-3.877,-3.8767,-3.875,-3.8688,-3.8672,-3.8598,-3.8652,-3.8655,-3.8727,-3.8563,-3.8791,-3.8802,-3.8812,-3.8987,-3.9014,-3.9037,0,0,0,0,0,-3.8917,-3.9015,-3.8961,-3.896,-3.8928,-3.8942,-3.8937,-3.8848,-3.8774,-3.8817,-3.8762,-3.8674,-3.872,-3.8659,-3.8661,-3.8735,-3.8785,-3.8798,-3.8811,-3.8975,-3.9008,-3.9036,0,0,0,0,0,0,-3.9101,-3.9004,-3.8943,-3.9019,-3.899,-3.8911,-3.8962,-3.8886,-3.8878,-3.8863,-3.8754,-3.8742,-3.8811,-3.8778,-3.8712,-3.8845,-3.8739,-3.8753,-3.8863,-3.8894,-3.8918,-3.8924,-3.8565,0,0,0,0,0,-3.915,-3.9168,-3.9083,-3.9159,-3.9147,-3.9058,-3.9061,-3.8995,-3.8961,-3.8948,-3.8897,-3.8869,-3.8876,-3.8884,-3.8886,-3.8982,-3.8966,-3.9034,-3.9059,-3.908,-3.9093,-3.914,-3.9169,-3.8859,-3.8859,-3.8859,0,0,-3.9253,-3.9202,-3.922,-3.9195,-3.9164,-3.9186,-3.9049,-3.9078,-3.9094,-3.8953,-3.9,-3.8962,-3.8924,-3.8999,-3.903,-3.8974,-3.9175,-3.9096,-3.9114,-3.9115,-3.9156,-3.9186,-3.9212,-3.8868,-3.8866,-3.8865,0,0,-3.9449,-3.9413,-3.9472,-3.9444,-3.9399,-3.9339,-3.9354,-3.9286,-3.9255,-3.9301,-3.9195,-3.9213,-3.9229,-3.9205,-3.9196,-3.9385,-3.9304,-3.939,-3.952,-3.9567,-3.9592,-3.9613,-3.9679,-3.9704,-3.9403,-3.9403,-3.9404,0,-3.9583,-3.961,-3.9512,-3.9548,-3.954,-3.9412,-3.9472,-3.945,-3.9409,-3.9408,-3.9346,-3.9362,-3.9328,-3.9395,-3.9441,-3.9438,-3.9451,-3.9395,-3.9596,-3.9616,-3.9634,-3.9696,-3.9722,-3.9414,-3.9413,-3.9411,-3.941,0,-3.9775,-3.9796,-3.9849,-3.9811,-3.9809,-3.9857,-3.9768,-3.9779,-3.9714,-3.9662,-3.971,-3.9664,-3.9654,-3.9666,-3.9603,-3.9725,-3.9691,-3.9615,-3.9505,-3.9676,-3.9732,-3.9755,-3.9429,-3.9425,-3.9422,-3.9419,0,0,-4.0083,-3.999,-4.0012,-3.9992,-3.9934,-3.9949,-3.9992,-3.998,-3.9991,-3.9969,-4.0001,-4.0018,-3.9946,-3.9936,-3.987,-3.9912,-4.0064,-3.9829,-3.9827,-3.9873,-4.0194,-4.025,-4.0279,-4.0011,-4.0015,-4.0018,-4.0196,0,-4.0266,-4.033,-4.0244,-4.0329,-4.0347,-4.0227,-4.0264,-4.0233,-4.0186,-4.0196,-4.0144,-4.0156,-4.0062,-4.0054,-4.0091,-4.0038,-4.0126,-4.0024,-4.004,-4.0042,-4.0051,-4.0309,-4.0369,-4.0539,-4.0218,-4.0222,-4.0224,0,-4.0486,-4.0471,-4.0558,-4.0493,-4.0497,-4.0532,-4.0515,-4.0526,-4.0489,-4.0451,-4.044,-4.0361,-4.0399,-4.0295,-4.0347,-4.0279,-4.0281,-4.0257,-4.0261,-4.0258,-4.0142,-4.0311,-4.0591,-4.0617,-4.0258,-4.0256,-4.0253,0,-4.07,-4.0703,-4.0754,-4.0741,-4.0668,-4.0695,-4.0667,-4.0624,-4.0623,-4.0609,-4.0607,-4.06,-4.0595,-4.0591,-4.0513,-4.0444,-4.0574,-4.0463,-4.0544,-4.0546,-4.0575,-4.0574,-4.0858,-4.0581,-4.058,-4.058,-4.0579,0,-4.0911,-4.0968,-4.0849,-4.088,-4.0941,-4.0843,-4.0906,-4.0866,-4.0829,-4.0851,-4.0749,-4.0772,-4.0668,-4.0681,-4.062,-4.0672,-4.0671,-4.0642,-4.0625,-4.065,-4.0654,-4.0649,-4.0634,-4.0586,-4.0585,-4.0584,-4.0583,0,-4.116,-4.1082,-4.113,-4.1056,-4.1039,-4.1087,-4.1025,-4.1052,-4.0998,-4.1028,-4.103,-4.0946,-4.0956,-4.0877,-4.0873,-4.0832,-4.0913,-4.0876,-4.0924,-4.0912,-4.0997,-4.099,-4.1286,-4.132,-4.1023,-4.1026,-4.1029,0,-4.1298,-4.1339,-4.127,-4.1276,-4.1252,-4.1265,-4.1263,-4.1169,-4.1171,-4.1133,-4.1165,-4.1166,-4.1161,-4.1183,-4.1123,-4.1119,-4.1081,-4.1185,-4.108,-4.1103,-4.108,-4.1078,-4.1081,-4.1207,-4.1211,-4.1214,-4.1216,0,-4.1552,-4.1512,-4.1512,-4.1499,-4.1499,-4.1485,-4.1464,-4.1476,-4.1374,-4.1382,-4.139,-4.1387,-4.1382,-4.1385,-4.1369,-4.1341,-4.1262,-4.125,-4.1268,-4.1293,-4.1319,-4.1305,-4.0983,-4.1243,-4.124,-4.1238,-4.1237,-4.1236,-4.1748,-4.1779,-4.1735,-4.1738,-4.1712,-4.1696,-4.1717,-4.1665,-4.167,-4.1657,-4.1602,-4.162,-4.1583,-4.1554,-4.1533,-4.1546,-4.1496,-4.1523,-4.1529,-4.1537,-4.1552,-4.1319,-4.1544,-4.1543,-4.1542,-4.1541,-4.154,0,-4.1996,-4.1961,-4.1966,-4.1939,-4.1942,-4.1867,-4.184,-4.1848,-4.1865,-4.1836,-4.1834,-4.1843,-4.1845,-4.1786,-4.178,-4.1803,-4.1767,-4.1805,-4.1801,-4.1796,-4.1598,-4.1581,-4.1834,-4.1834,-4.1834,-4.1834,-4.1834,-4.1834,-4.2124,-4.2171,-4.2126,-4.216,-4.2125,-4.214,-4.2131,-4.2116,-4.2092,-4.2106,-4.2107,-4.2068,-4.2027,-4.2018,-4.2017,-4.1999,-4.2002,-4.2052,-4.2023,-4.1838,-4.181,-4.1783,-4.1767,-4.2054,-4.2054,-4.2219,-4.222,-4.2222]},{"header":{"parameterUnit":"m.s-1","parameterCategory":1,"la1":30.2991,"la2":30.254,"lo1":-89.0895,"lo2":-89.0444,"dy":0.0017,"dx":0.0017,"nx":28,"ny":28,"refTime":"2025-09-08T21:00:00:Z","depth":0,"parameterNumber":3,"parameterNumberName":"V-component_of_WINDS"},"data":[0,0,0,0,0,0,0,0,0,0,0,0,0,0,0,0,0,0,0,0,0,0,0,0,0,0,0,0,0,0,0,0,0,0,0,0,0,0,0,0,0,0,0,0,0,0,0,0,0,0,0,0,0,0,0,0,0,0,-0.4036,-0.4036,0,-0.4044,-0.4044,-0.4044,-0.4023,-0.4022,-0.4021,-0.4021,-0.403,-0.4031,-0.4032,0,0,0,0,0,0,0,0,0,0,0,0,0,-0.4002,-0.4002,-0.4036,-0.4036,-0.4036,-0.4044,-0.4044,-0.4044,-0.4023,-0.4022,-0.4021,-0.402,-0.403,-0.4031,-0.4032,0,0,0,0,0,0,0,0,0,0,0,0,0,-0.4014,-0.4003,-0.4036,-0.4026,-0.4025,-0.4044,-0.4044,-0.4044,-0.4023,-0.4022,-0.4021,-0.402,-0.403,-0.4031,-0.4032,-0.4061,0,0,-0.4036,-0.4037,0,0,0,0,0,0,0,0,-0.4013,-0.4015,-0.4027,-0.4027,-0.4026,-0.4031,-0.4035,-0.405,-0.4023,-0.4024,-0.4021,-0.4019,-0.4032,-0.4033,-0.4036,-0.4061,-0.4062,-0.4037,-0.4037,-0.4038,-0.4038,0,0,0,0,0,0,0,-0.4012,-0.4015,-0.4039,-0.4028,-0.4027,-0.4021,-0.4022,-0.4038,-0.4033,-0.4024,-0.4022,-0.4023,-0.4031,-0.4035,-0.4036,-0.4062,-0.4037,-0.4038,-0.4039,-0.4039,-0.4109,-0.411,0,0,0,0,0,0,-0.4013,-0.4014,-0.4039,-0.4039,-0.4017,-0.4023,-0.4024,-0.403,-0.4033,-0.4032,-0.4024,-0.4022,-0.4033,-0.4035,-0.4037,-0.407,-0.4038,-0.4039,-0.404,-0.4108,-0.4109,-0.411,0,0,0,0,0,0,-0.4012,-0.4015,-0.4038,-0.4026,-0.4029,-0.4024,-0.4032,-0.4031,-0.4035,-0.4033,-0.4032,-0.4029,-0.4033,-0.4035,-0.4055,-0.407,-0.404,-0.4041,-0.4107,-0.4108,-0.411,-0.4136,0,0,0,0,0,0,-0.4011,-0.4015,-0.4026,-0.4026,-0.4029,-0.4056,-0.4033,-0.4032,-0.4038,-0.4035,-0.4038,-0.4038,-0.4032,-0.4053,-0.4056,-0.4071,-0.4042,-0.4105,-0.4107,-0.4109,-0.4134,-0.4139,-0.4143,0,0,0,0,0,-0.401,-0.4034,-0.4027,-0.403,-0.4043,-0.4057,-0.4059,-0.4051,-0.4039,-0.405,-0.4048,-0.4037,-0.4067,-0.4055,-0.4058,-0.4074,-0.4104,-0.4107,-0.4109,-0.4132,-0.4138,-0.4142,0,0,0,0,0,0,-0.4036,-0.4034,-0.4026,-0.405,-0.4054,-0.4053,-0.4067,-0.4058,-0.4065,-0.4063,-0.4054,-0.4055,-0.4076,-0.4077,-0.4063,-0.4101,-0.4084,-0.4087,-0.41,-0.4105,-0.411,-0.4109,-0.4043,0,0,0,0,0,-0.4044,-0.4056,-0.4053,-0.4075,-0.4077,-0.4072,-0.4078,-0.4071,-0.4075,-0.4077,-0.4077,-0.4081,-0.4091,-0.4098,-0.4107,-0.4133,-0.4134,-0.4146,-0.415,-0.4154,-0.4157,-0.417,-0.4176,-0.4118,-0.4118,-0.4118,0,0,-0.4062,-0.4062,-0.407,-0.408,-0.4082,-0.4094,-0.4073,-0.4087,-0.4096,-0.4079,-0.4097,-0.4097,-0.4101,-0.4124,-0.4134,-0.4125,-0.4172,-0.4157,-0.4159,-0.4161,-0.4173,-0.4179,-0.4184,-0.412,-0.4119,-0.4119,0,0,-0.4101,-0.4102,-0.412,-0.4122,-0.4125,-0.4121,-0.4125,-0.4126,-0.4125,-0.4143,-0.413,-0.414,-0.4158,-0.4161,-0.4165,-0.4203,-0.4193,-0.4206,-0.4228,-0.4242,-0.4246,-0.425,-0.4264,-0.4269,-0.4209,-0.4209,-0.4209,0,-0.4124,-0.4141,-0.4131,-0.4145,-0.415,-0.4133,-0.4151,-0.4154,-0.416,-0.4164,-0.4153,-0.4174,-0.4176,-0.4199,-0.4208,-0.4212,-0.4216,-0.4206,-0.4246,-0.425,-0.4254,-0.4267,-0.4272,-0.421,-0.421,-0.421,-0.421,0,-0.4168,-0.418,-0.4194,-0.42,-0.4205,-0.4222,-0.4214,-0.4221,-0.4213,-0.421,-0.4228,-0.4229,-0.4238,-0.4243,-0.4236,-0.4265,-0.4259,-0.4248,-0.423,-0.4261,-0.4273,-0.4278,-0.4213,-0.4212,-0.4212,-0.4211,0,0,-0.4226,-0.4224,-0.4229,-0.4231,-0.4232,-0.4241,-0.4256,-0.4264,-0.427,-0.4274,-0.4286,-0.4301,-0.4289,-0.4294,-0.4287,-0.4298,-0.4328,-0.4285,-0.4285,-0.4294,-0.4359,-0.4369,-0.4375,-0.4321,-0.4322,-0.4322,-0.4359,0,-0.4265,-0.429,-0.4281,-0.4307,-0.4317,-0.4301,-0.4313,-0.4315,-0.4312,-0.4321,-0.4317,-0.4328,-0.4312,-0.4315,-0.4325,-0.4322,-0.4341,-0.4319,-0.4333,-0.4334,-0.4334,-0.4381,-0.4391,-0.4426,-0.4364,-0.4365,-0.4365,0,-0.4314,-0.4319,-0.4346,-0.4343,-0.4348,-0.4359,-0.4365,-0.4373,-0.4375,-0.4371,-0.4375,-0.4366,-0.438,-0.4361,-0.438,-0.4366,-0.437,-0.4369,-0.4371,-0.4373,-0.4352,-0.4385,-0.4437,-0.4443,-0.4372,-0.4372,-0.4371,0,-0.4354,-0.4367,-0.4385,-0.4387,-0.4384,-0.4393,-0.4392,-0.4392,-0.4397,-0.4402,-0.4405,-0.4411,-0.4415,-0.4421,-0.4413,-0.44,-0.4433,-0.4414,-0.4432,-0.4432,-0.4441,-0.4441,-0.4495,-0.4442,-0.4442,-0.4442,-0.4442,0,-0.4399,-0.4417,-0.4403,-0.4414,-0.4432,-0.442,-0.4439,-0.4437,-0.4436,-0.4447,-0.4432,-0.4442,-0.443,-0.4439,-0.4433,-0.445,-0.4452,-0.445,-0.4448,-0.4452,-0.4452,-0.4456,-0.4454,-0.4443,-0.4443,-0.4443,-0.4442,0,-0.4448,-0.444,-0.4458,-0.4453,-0.4452,-0.4466,-0.4462,-0.4472,-0.4467,-0.448,-0.4482,-0.4474,-0.4484,-0.4476,-0.4485,-0.4481,-0.4503,-0.4498,-0.4503,-0.4502,-0.452,-0.4519,-0.458,-0.4587,-0.4529,-0.4529,-0.453,0,-0.4478,-0.4491,-0.4487,-0.4492,-0.4492,-0.4501,-0.4505,-0.4493,-0.4499,-0.45,-0.451,-0.4517,-0.4523,-0.4539,-0.4534,-0.4541,-0.4536,-0.4557,-0.4537,-0.454,-0.4537,-0.4537,-0.4538,-0.4561,-0.4562,-0.4563,-0.4563,0,-0.4532,-0.4527,-0.4533,-0.4538,-0.4543,-0.4546,-0.4549,-0.4554,-0.4541,-0.4548,-0.4557,-0.4561,-0.4569,-0.4577,-0.4582,-0.4582,-0.4571,-0.4569,-0.4573,-0.4578,-0.4581,-0.458,-0.4515,-0.4568,-0.4568,-0.4567,-0.4567,-0.4567,-0.4573,-0.4583,-0.4582,-0.4589,-0.4589,-0.4591,-0.46,-0.4595,-0.4601,-0.4607,-0.4599,-0.461,-0.461,-0.4615,-0.4616,-0.4624,-0.4615,-0.4622,-0.4624,-0.4626,-0.4629,-0.4578,-0.4625,-0.4625,-0.4624,-0.4624,-0.4624,0,-0.4627,-0.4624,-0.4631,-0.4634,-0.464,-0.4627,-0.4628,-0.4634,-0.4643,-0.4643,-0.4649,-0.4658,-0.4665,-0.4661,-0.4667,-0.4674,-0.4669,-0.4676,-0.4676,-0.4676,-0.4636,-0.4632,-0.468,-0.468,-0.468,-0.468,-0.468,-0.468,-0.4656,-0.4672,-0.4666,-0.4682,-0.4679,-0.4689,-0.4691,-0.4692,-0.4692,-0.4703,-0.4709,-0.4705,-0.4703,-0.4709,-0.4714,-0.4713,-0.4716,-0.4725,-0.4722,-0.4685,-0.4679,-0.4674,-0.467,-0.4726,-0.4726,-0.4762,-0.4762,-0.4762]}]]